NOAA 16 DEB, 41275

Orbit data source: Space-Track

NOAA 16 DEB, 41275 is space debris in SSO originally from a launch on Thu, 21 Sep 2000 UTC launched from the Air Force Western Test Range (AFWTR). Debris objects in space refer to the collection of defunct objects orbiting the Earth. Examples of debris include non-operational satellites, rocket bodies, and fragments generated from explosions, collisions, or faulty payload assembly.

Loading next visibility...
Identifier
41275, 2000-055GB
Orbit
SSO
Country
Flag of USUS
Related business
Manufacturer
Unknown
Mission
Spacecraft
Bus & Motor
Unknown
Mass
Unknown
Launch date (UTC)
2000-09-21 (26 years ago)
Launch vehicle
Unknown
Launch site
Air Force Western Test Range (AFWTR)
Object type
Payload
Rocket body
Debris
Shape & HBR
Unknown shape, 0.1 m
Radar Cross Section
Medium (>0.1 m² and <1 m²)

Expand to show TLE details & history
Last TLE update: 16 hours ago

TLE from 16 hours ago
0 NOAA 16 DEB
1 41275U 00055GB  26228.38646842  .00001692  00000-0  70388-3 0  9997
2 41275  98.6748 282.1149 0017036 352.7291   7.3640 14.27615135549807
Epoch: 2026-08-16T09:16Z
TLE epoch observation values (Epoch: 2026-08-16T09:16:30.871Z)
Latitude
-0.00005°
Longitude
178.20254°
Altitude
790.51 km
Speed
7.465 km/s
True Right ascension
18h 48m 27s
True Declination
0° 00' 00"
Sunlit
Object was in full shadow at epoch
Visualization orbit readout
Latitude
Unknown
Longitude
Unknown
Altitude
Unknown
Speed
Unknown
Apparent Right ascension
Unknown
Apparent Declination
Unknown
Sunlit
N/A
Visualization observer readout
Local Sidereal Time
16:04:53
Azimuth
Unknown
Elevation
Unknown
Doppler factor
Unknown
Orbital elements
Apogee altitude
809.084 km
Perigee altitude
784.637 km
Semi-major axis
7,174.997 km
Eccentricity
0.0017
Inclination
98.6748°
RAAN
282.1149°
Arg. of periapsis
352.7291°
True anomaly
7.38907°
Mean anomaly
7.364°
Eccentric anomaly
7.37653°
Mean motion
3.57117 °/min
Orbital period
100.81 mins
BSTAR
0.00070388
Loading maneuver chart data...
Computing Atmospheric mass density...
Loading historical data...
Loading historical data...
Loading historical data...
Loading historical data...
Loading historical data...
Loading historical data...
Loading historical data...

Documentation

Showing up to 5 results
|